[[{"header":{"parameterUnit":"m.s-1","parameterCategory":1,"la1":30.2991,"la2":30.254,"lo1":-89.0895,"lo2":-89.0444,"dy":0.0017,"dx":0.0017,"nx":28,"ny":28,"refTime":"2024-05-21T21:00:00:Z","depth":0,"parameterNumber":2,"parameterNumberName":"U-component_of_WINDS"},"data":[0,0,0,0,0,0,0,0,0,0,0,0,0,0,0,0,0,0,0,0,0,0,0,0,0,0,0,0,0,0,0,0,0,0,0,0,0,0,0,0,0,0,0,0,0,0,0,0,0,0,0,0,0,0,0,0,0,0,-2.108,-2.108,0,-2.11,-2.11,-2.11,-2.1073,-2.1072,-2.1071,-2.107,-2.1089,-2.1091,-2.1092,0,0,0,0,0,0,0,0,0,0,0,0,0,-2.1017,-2.1018,-2.108,-2.108,-2.108,-2.11,-2.11,-2.11,-2.1073,-2.1072,-2.1071,-2.107,-2.1089,-2.1091,-2.1092,0,0,0,0,0,0,0,0,0,0,0,0,0,-2.1041,-2.1018,-2.108,-2.1069,-2.1068,-2.11,-2.11,-2.11,-2.1073,-2.1072,-2.107,-2.1069,-2.1088,-2.1091,-2.1093,-2.1135,0,0,-2.1099,-2.11,0,0,0,0,0,0,0,0,-2.104,-2.1043,-2.107,-2.107,-2.1069,-2.1082,-2.1085,-2.1112,-2.1074,-2.1071,-2.107,-2.1068,-2.1088,-2.109,-2.1097,-2.1136,-2.1137,-2.1099,-2.1101,-2.1102,-2.1102,0,0,0,0,0,0,0,-2.1038,-2.1042,-2.1088,-2.1071,-2.107,-2.1063,-2.1065,-2.109,-2.1088,-2.1071,-2.107,-2.1072,-2.1088,-2.1095,-2.1097,-2.1137,-2.1099,-2.1101,-2.1103,-2.1103,-2.121,-2.1212,0,0,0,0,0,0,-2.1038,-2.1041,-2.1087,-2.1088,-2.1051,-2.1065,-2.1067,-2.108,-2.1087,-2.1087,-2.1074,-2.1071,-2.1092,-2.1095,-2.1098,-2.1147,-2.1102,-2.1104,-2.1105,-2.1209,-2.1211,-2.1212,0,0,0,0,0,0,-2.1037,-2.1042,-2.1086,-2.1064,-2.1069,-2.1068,-2.1082,-2.1081,-2.1088,-2.1089,-2.1088,-2.1082,-2.1091,-2.1095,-2.1126,-2.1148,-2.1105,-2.1106,-2.1207,-2.1209,-2.1212,-2.1247,0,0,0,0,0,0,-2.1035,-2.1042,-2.1059,-2.1065,-2.1071,-2.1114,-2.1083,-2.1082,-2.1092,-2.1089,-2.1097,-2.1096,-2.109,-2.1123,-2.1128,-2.115,-2.1108,-2.1205,-2.1208,-2.1211,-2.1244,-2.125,-2.1256,0,0,0,0,0,-2.1033,-2.1068,-2.106,-2.1065,-2.1091,-2.1116,-2.1119,-2.1112,-2.1094,-2.111,-2.1111,-2.1096,-2.1145,-2.1126,-2.1132,-2.1155,-2.1204,-2.1207,-2.1211,-2.1241,-2.1249,-2.1256,0,0,0,0,0,0,-2.1064,-2.1069,-2.1059,-2.1098,-2.1107,-2.1111,-2.1132,-2.112,-2.1134,-2.1131,-2.112,-2.1122,-2.1155,-2.1158,-2.1137,-2.1196,-2.1171,-2.1176,-2.1192,-2.12,-2.1206,-2.1204,-2.111,0,0,0,0,0,-2.1076,-2.1096,-2.1098,-2.1132,-2.1136,-2.1133,-2.1144,-2.1137,-2.1146,-2.1149,-2.1152,-2.116,-2.1177,-2.1189,-2.1205,-2.1244,-2.1245,-2.1263,-2.1269,-2.1273,-2.1278,-2.1298,-2.1305,-2.1224,-2.1224,-2.1224,0,0,-2.1099,-2.1104,-2.1117,-2.1138,-2.1144,-2.1164,-2.1137,-2.1159,-2.1174,-2.1153,-2.1182,-2.1184,-2.1193,-2.1228,-2.1243,-2.1231,-2.13,-2.1278,-2.1282,-2.1283,-2.1302,-2.131,-2.1317,-2.1226,-2.1226,-2.1226,0,0,-2.1153,-2.1159,-2.1187,-2.1193,-2.1203,-2.12,-2.1207,-2.1213,-2.1214,-2.1243,-2.1227,-2.1244,-2.1274,-2.128,-2.1288,-2.1343,-2.1329,-2.1348,-2.1379,-2.1399,-2.1405,-2.1411,-2.1429,-2.1436,-2.1352,-2.1352,-2.1352,0,-2.1181,-2.1211,-2.1203,-2.1226,-2.1235,-2.1217,-2.1245,-2.1251,-2.1265,-2.1272,-2.1258,-2.1294,-2.1299,-2.1335,-2.1348,-2.1355,-2.1362,-2.1347,-2.1405,-2.141,-2.1415,-2.1433,-2.144,-2.1354,-2.1354,-2.1354,-2.1354,0,-2.1245,-2.1266,-2.1287,-2.1301,-2.1313,-2.1339,-2.1333,-2.1346,-2.1338,-2.1337,-2.1366,-2.1371,-2.1387,-2.1395,-2.1388,-2.1429,-2.1421,-2.1407,-2.1382,-2.1425,-2.1442,-2.1449,-2.1357,-2.1357,-2.1356,-2.1356,0,0,-2.132,-2.1328,-2.1336,-2.1341,-2.135,-2.1366,-2.139,-2.1405,-2.1416,-2.1426,-2.1446,-2.1471,-2.1457,-2.1465,-2.1458,-2.1476,-2.1517,-2.1458,-2.1458,-2.1468,-2.1563,-2.1574,-2.1582,-2.1509,-2.151,-2.1511,-2.1562,0,-2.1372,-2.1415,-2.1407,-2.1448,-2.1466,-2.1449,-2.147,-2.1477,-2.1476,-2.1491,-2.149,-2.1508,-2.1488,-2.1493,-2.1509,-2.1509,-2.1536,-2.1505,-2.1526,-2.1527,-2.1524,-2.1591,-2.1603,-2.165,-2.1568,-2.1569,-2.157,0,-2.144,-2.1452,-2.1495,-2.1499,-2.1507,-2.1526,-2.1539,-2.1554,-2.1561,-2.1559,-2.1568,-2.1558,-2.1581,-2.1556,-2.1588,-2.1567,-2.1575,-2.1576,-2.1578,-2.1579,-2.1551,-2.1593,-2.1665,-2.1672,-2.158,-2.158,-2.1579,0,-2.1489,-2.1516,-2.1545,-2.155,-2.1557,-2.157,-2.1573,-2.1579,-2.1589,-2.16,-2.1606,-2.162,-2.1627,-2.1638,-2.1631,-2.1614,-2.1664,-2.1639,-2.1662,-2.1662,-2.1673,-2.1673,-2.1747,-2.168,-2.168,-2.1679,-2.1679,0,-2.1548,-2.1575,-2.1567,-2.1584,-2.1613,-2.1604,-2.1633,-2.1634,-2.1639,-2.1656,-2.1641,-2.1657,-2.1648,-2.1663,-2.1658,-2.1684,-2.1688,-2.1687,-2.1685,-2.1688,-2.1688,-2.1693,-2.1689,-2.1681,-2.1681,-2.168,-2.168,0,-2.1608,-2.1604,-2.1634,-2.1637,-2.1638,-2.1659,-2.1662,-2.1678,-2.1676,-2.1697,-2.1702,-2.1698,-2.1715,-2.171,-2.1728,-2.1725,-2.1758,-2.1752,-2.1756,-2.1754,-2.1778,-2.1775,-2.1858,-2.1868,-2.1794,-2.1795,-2.1795,0,-2.1647,-2.1667,-2.1672,-2.1682,-2.1686,-2.1703,-2.1712,-2.1703,-2.1714,-2.1723,-2.1738,-2.1753,-2.1766,-2.1794,-2.1792,-2.1806,-2.18,-2.1828,-2.1802,-2.1804,-2.18,-2.1799,-2.18,-2.1833,-2.1834,-2.1835,-2.1835,0,-2.1715,-2.1711,-2.1725,-2.1739,-2.175,-2.176,-2.1769,-2.1778,-2.1769,-2.1782,-2.1799,-2.1808,-2.1827,-2.1842,-2.1854,-2.1857,-2.1845,-2.1843,-2.1849,-2.1852,-2.1853,-2.1852,-2.1769,-2.1842,-2.1841,-2.184,-2.184,-2.184,-2.1764,-2.1781,-2.1787,-2.1803,-2.1808,-2.1816,-2.1831,-2.183,-2.1844,-2.1859,-2.1853,-2.1872,-2.1878,-2.1893,-2.1897,-2.1912,-2.1901,-2.191,-2.1912,-2.1915,-2.1917,-2.1851,-2.1914,-2.1914,-2.1914,-2.1914,-2.1914,0,-2.1831,-2.1834,-2.1848,-2.1861,-2.1873,-2.186,-2.1869,-2.188,-2.1897,-2.1903,-2.1915,-2.1934,-2.1949,-2.1949,-2.1962,-2.1974,-2.1969,-2.1978,-2.1977,-2.1977,-2.1927,-2.192,-2.1982,-2.1982,-2.1982,-2.1982,-2.1982,-2.1982,-2.1867,-2.1894,-2.1891,-2.192,-2.1922,-2.1941,-2.1947,-2.1954,-2.1959,-2.1981,-2.1993,-2.1993,-2.1996,-2.2009,-2.2022,-2.2021,-2.2027,-2.2038,-2.2035,-2.1988,-2.1981,-2.1975,-2.1968,-2.204,-2.204,-2.2085,-2.2085,-2.2086]},{"header":{"parameterUnit":"m.s-1","parameterCategory":1,"la1":30.2991,"la2":30.254,"lo1":-89.0895,"lo2":-89.0444,"dy":0.0017,"dx":0.0017,"nx":28,"ny":28,"refTime":"2024-05-21T21:00:00:Z","depth":0,"parameterNumber":3,"parameterNumberName":"V-component_of_WINDS"},"data":[0,0,0,0,0,0,0,0,0,0,0,0,0,0,0,0,0,0,0,0,0,0,0,0,0,0,0,0,0,0,0,0,0,0,0,0,0,0,0,0,0,0,0,0,0,0,0,0,0,0,0,0,0,0,0,0,0,0,2.7962,2.7962,0,2.7961,2.796,2.796,2.7927,2.7927,2.7926,2.7925,2.7923,2.7924,2.7925,0,0,0,0,0,0,0,0,0,0,0,0,0,2.7936,2.7937,2.7962,2.7962,2.7962,2.7961,2.796,2.796,2.7928,2.7927,2.7926,2.7925,2.7923,2.7924,2.7925,0,0,0,0,0,0,0,0,0,0,0,0,0,2.7942,2.7937,2.7962,2.7945,2.7944,2.7961,2.796,2.796,2.7928,2.7927,2.7925,2.7924,2.7923,2.7924,2.7925,2.7957,0,0,2.7928,2.7929,0,0,0,0,0,0,0,0,2.7942,2.7943,2.7948,2.7947,2.7945,2.7943,2.7951,2.7959,2.7928,2.7934,2.7925,2.7923,2.7931,2.7931,2.7934,2.7957,2.7957,2.7929,2.7929,2.793,2.793,0,0,0,0,0,0,0,2.7942,2.7943,2.7961,2.7948,2.7946,2.7938,2.7937,2.7952,2.794,2.7933,2.7931,2.7931,2.793,2.7933,2.7933,2.7957,2.7928,2.7929,2.793,2.7931,2.8008,2.8009,0,0,0,0,0,0,2.7944,2.7943,2.7961,2.7961,2.794,2.794,2.7939,2.7945,2.7939,2.7937,2.7932,2.793,2.7931,2.7932,2.7933,2.7971,2.793,2.7931,2.7931,2.8006,2.8008,2.8009,0,0,0,0,0,0,2.7943,2.7946,2.7961,2.7952,2.7953,2.7941,2.7948,2.7945,2.7948,2.7939,2.7936,2.7938,2.793,2.7932,2.7952,2.797,2.7931,2.7932,2.8005,2.8007,2.8009,2.8046,0,0,0,0,0,0,2.7943,2.7946,2.7958,2.7952,2.7954,2.798,2.7949,2.7946,2.795,2.7947,2.7943,2.7941,2.793,2.795,2.7953,2.7971,2.7933,2.8003,2.8005,2.8008,2.8043,2.8049,2.8054,0,0,0,0,0,2.7942,2.7968,2.7958,2.7961,2.7969,2.7981,2.7982,2.7968,2.7952,2.7964,2.7958,2.7941,2.7968,2.7953,2.7955,2.7974,2.8002,2.8005,2.8008,2.8041,2.8048,2.8054,0,0,0,0,0,0,2.7976,2.7967,2.7956,2.7982,2.7982,2.7975,2.799,2.7977,2.7982,2.7978,2.7961,2.7961,2.7983,2.7981,2.7964,2.8005,2.7982,2.7986,2.8006,2.8013,2.8018,2.8018,2.7934,0,0,0,0,0,2.7986,2.7997,2.7989,2.8012,2.8013,2.8002,2.8007,2.7996,2.7996,2.7996,2.7992,2.7992,2.8001,2.8007,2.8014,2.8043,2.8041,2.8057,2.8063,2.8068,2.8071,2.8086,2.8093,2.8019,2.8019,2.8019,0,0,2.8008,2.8005,2.8013,2.8019,2.8018,2.803,2.8002,2.8016,2.8024,2.7998,2.8017,2.8014,2.8013,2.8038,2.8048,2.8036,2.8091,2.8071,2.8075,2.8076,2.809,2.8097,2.8103,2.8022,2.8021,2.8021,0,0,2.8054,2.8052,2.8071,2.8072,2.8071,2.8063,2.8068,2.8064,2.806,2.8079,2.806,2.807,2.8085,2.8085,2.8088,2.8135,2.8119,2.8137,2.8166,2.8181,2.8187,2.8192,2.8208,2.8215,2.8141,2.8141,2.8141,0,2.8081,2.8097,2.8083,2.8098,2.8101,2.8079,2.8098,2.8099,2.8101,2.8104,2.8091,2.811,2.8108,2.8132,2.8144,2.8146,2.8151,2.8137,2.8187,2.8192,2.8197,2.8212,2.8218,2.8143,2.8143,2.8143,2.8142,0,2.8131,2.8143,2.8158,2.8161,2.8166,2.8183,2.8172,2.8179,2.8168,2.8162,2.8181,2.8179,2.8185,2.819,2.818,2.8213,2.8206,2.819,2.8166,2.8206,2.822,2.8226,2.8146,2.8145,2.8145,2.8144,0,0,2.8196,2.8192,2.8198,2.8199,2.8197,2.8206,2.8222,2.8229,2.8235,2.8238,2.8251,2.8265,2.825,2.8253,2.8243,2.8256,2.8293,2.8239,2.8238,2.8248,2.8329,2.8341,2.8348,2.8283,2.8284,2.8285,2.8329,0,2.824,2.8268,2.8255,2.8284,2.8295,2.8275,2.8289,2.8289,2.8284,2.8293,2.8287,2.8297,2.8278,2.8279,2.8292,2.8286,2.8309,2.8283,2.8295,2.8296,2.8295,2.8355,2.8367,2.8409,2.8335,2.8336,2.8336,0,2.8294,2.8299,2.8329,2.8326,2.833,2.8343,2.8348,2.8357,2.8357,2.8353,2.8356,2.8343,2.8359,2.8336,2.8357,2.834,2.8344,2.8342,2.8344,2.8344,2.8318,2.8356,2.8422,2.8428,2.8345,2.8344,2.8344,0,2.8339,2.8353,2.8373,2.8375,2.8371,2.8381,2.838,2.8379,2.8384,2.8389,2.8392,2.8398,2.8402,2.8407,2.8396,2.838,2.8419,2.8395,2.8416,2.8416,2.8424,2.8424,2.8491,2.8428,2.8428,2.8428,2.8428,0,2.8389,2.8408,2.8393,2.8405,2.8426,2.8412,2.8433,2.843,2.843,2.8441,2.8424,2.8434,2.842,2.8429,2.8421,2.844,2.8442,2.8438,2.8436,2.8439,2.844,2.8441,2.8438,2.843,2.8429,2.8429,2.8429,0,2.8442,2.8433,2.8453,2.8449,2.8448,2.8463,2.8459,2.847,2.8465,2.8479,2.8481,2.8472,2.8482,2.8472,2.8482,2.8476,2.8502,2.8495,2.8502,2.85,2.852,2.8518,2.859,2.8599,2.8532,2.8532,2.8533,0,2.8474,2.8488,2.8485,2.8492,2.8492,2.8502,2.8507,2.8494,2.85,2.8502,2.8513,2.8522,2.8528,2.8546,2.854,2.8547,2.854,2.8565,2.8541,2.8545,2.854,2.8539,2.854,2.857,2.857,2.8571,2.8572,0,2.8531,2.8526,2.8534,2.8541,2.8548,2.8552,2.8555,2.8561,2.8548,2.8556,2.8566,2.8571,2.8581,2.859,2.8596,2.8595,2.8581,2.8579,2.8584,2.8588,2.8591,2.8589,2.8514,2.8577,2.8577,2.8576,2.8576,2.8576,2.8575,2.8586,2.8586,2.8596,2.8597,2.86,2.8611,2.8606,2.8615,2.8622,2.8614,2.8627,2.8627,2.8633,2.8634,2.8644,2.8633,2.8641,2.8643,2.8644,2.8647,2.859,2.8645,2.8645,2.8645,2.8644,2.8644,0,2.8631,2.863,2.8639,2.8644,2.8652,2.8639,2.8642,2.8649,2.866,2.8662,2.8669,2.8681,2.869,2.8685,2.8692,2.8701,2.8695,2.8703,2.8702,2.8702,2.8656,2.8651,2.8708,2.8708,2.8708,2.8708,2.8708,2.8708,2.8661,2.868,2.8675,2.8695,2.8694,2.8706,2.8709,2.8712,2.8714,2.8728,2.8735,2.8732,2.8731,2.8739,2.8746,2.8745,2.8748,2.8759,2.8755,2.8712,2.8706,2.8699,2.8694,2.876,2.876,2.88,2.88,2.88]}]]